Vorticity
-0 -0 4 8 7 8 8 10 6 8 7 12 7 5 8 13 2 5 6 8 6 9
3 4 9 8 7 7 7 9 6 9 13 6 4 11 10 3 5 8 4 4 2 1
7 9 9 9 9 12 7 8 10 12 5 6 11 5 3 9 8 8 2 -1 6 9
9 5 5 4 13 10 9 14 8 4 7 13 5 4 4 2 -2 -3 12 16 6 19
7 4 6 4 16 16 11 3 7 7 11 5 5 9 10 7 -2 8 6 12 19 12
6 -0 9 16 12 4 3 7 6 10 6 4 1 -1 3 -0 4 18 14 14 16 2
-3 14 12 6 4 7 10 8 6 4 4 3 5 10 -7 9 7 7 26 19 9 21
6 7 6 6 9 9 7 6 8 -0 4 8 8 6 8 9 14 14 16 16 25 24
8 8 9 11 5 6 7 2 11 5 6 5 22 10 3 8 19 1 21 25 19 14
10 11 6 6 4 3 8 11 8 -1 4 9 6 11 20 12 13 29 21 18 13 13
10 6 5 4 5 8 3 14 -0 15 5 14 27 22 8 25 33 21 20 15 13 15
7 3 4 15 5 7 6 2 2 -1 8 16 17 6 34 19 4 10 18 13 14 15
16 -11 13 14 -13 21 24 1 14 9 18 11 29 27 10 11 6 12 13 12 14 14
5 8 12 14 12 11 10 11 16 18 10 38 17 8 5 13 6 12 15 14 14 13
Height
5748 5744 5739 5733 5727 5721 5714 5709 5703 5697 5691 5686 5680 5673 5665 5657 5649 5642 5634 5626 5617 5607
5741 5735 5729 5723 5717 5711 5706 5700 5694 5687 5681 5673 5667 5660 5652 5644 5635 5626 5618 5609 5600 5589
5732 5725 5719 5714 5708 5702 5696 5691 5684 5677 5669 5661 5652 5645 5637 5629 5620 5611 5601 5592 5582 5570
5721 5715 5710 5704 5698 5696 5688 5680 5673 5664 5656 5646 5638 5629 5620 5611 5602 5592 5582 5572 5562 5551
5711 5707 5701 5695 5689 5683 5675 5667 5659 5650 5642 5633 5625 5614 5604 5594 5584 5573 5562 5553 5543 5533
5702 5696 5689 5684 5678 5670 5661 5652 5644 5636 5628 5619 5609 5598 5587 5576 5566 5557 5547 5538 5529 5519
5689 5683 5676 5670 5663 5656 5648 5640 5632 5623 5614 5603 5591 5580 5569 5558 5549 5540 5531 5522 5513 5502
5676 5669 5663 5657 5650 5644 5636 5627 5618 5608 5597 5586 5575 5563 5553 5542 5531 5523 5513 5504 5493 5483
5664 5657 5651 5645 5638 5630 5622 5612 5601 5590 5580 5570 5560 5549 5537 5526 5517 5509 5499 5489 5478 5467
5652 5645 5639 5632 5624 5615 5606 5595 5585 5574 5565 5555 5545 5534 5523 5513 5503 5493 5483 5474 5464 5454
5639 5633 5625 5618 5608 5598 5588 5578 5569 5559 5548 5539 5527 5517 5508 5498 5489 5480 5471 5462 5453 5445
5626 5618 5609 5600 5591 5582 5573 5563 5554 5544 5533 5521 5512 5503 5493 5484 5476 5468 5459 5451 5443 5434
5611 5604 5595 5588 5578 5569 5560 5550 5539 5529 5517 5506 5496 5488 5481 5473 5464 5455 5448 5440 5432 5424
5598 5589 5581 5573 5563 5553 5543 5533 5524 5515 5504 5493 5484 5477 5470 5462 5453 5445 5437 5429 5422 5415